Weather History for Bentonville, AR

Change the Weather History Date:

Thursday, November 3, 2011

  Actual Average Record
Temperature  
Mean Temperature 44 °F -  
Max Temperature 51 °F 60 °F 79 °F (1964)
Min Temperature 37 °F 39 °F 12 °F (1966)
Degree Days  
Heating Degree Days 21    
Moisture  
Dew Point 32 °F    
Average Humidity 64    
Maximum Humidity 93    
Minimum Humidity 41    
Precipitation  
Precipitation 0.00 in - - ()
Sea Level Pressure  
Sea Level Pressure 30.13 in    
Wind  
Wind Speed 14 mph (NW)    
Max Wind Speed 21 mph    
Max Gust Speed 31 mph    
Visibility 10 miles    
Events      
Averages and records for this station are not official NWS values.
T = Trace of Precipitation, MM = Missing Value Source: NWS Daily Summary

Daily Weather History Graph

Daily Weather History Graph

Search for Another Location

Airport:

Trip Planner

Search our weather history database for the weather conditions in past years. The results will help you decide how hot, cold, wet, or windy it might be!

Date:

Astronomy

Nov. 03, 2011 Rise Set
Actual Time 7:41 AM CDT 6:18 PM CDT
Civil Twilight 7:14 AM CDT 6:45 PM CDT
Nautical Twilight 6:44 AM CDT 7:15 PM CDT
Astronomical Twilight 6:14 AM CDT 7:45 PM CDT
Moon 2:32 PM CDT (11/3) 1:06 AM CDT (11/3)
Length of Visible Light 11h 30m
Length of Day
10h 37m
First Quarter, 60% of the Moon is Illuminated
Nov 3
First Quarter
Nov 10
Full
Nov 18
Last Quarter
Nov 25
New
Dec 2
First Quarter

Hourly Weather History & Observations

Time (CDT) Temp. Windchill Dew Point Humidity Pressure Visibility Wind Dir Wind Speed Gust Speed Precip Events Conditions
12:15 AM 44.6 °F 37.8 °F 41.0 °F 87% 29.98 in 4.0 mi West 15.0 mph 20.7 mph N/A   Overcast
12:35 AM 42.8 °F 35.8 °F 39.2 °F 87% 29.98 in 4.0 mi West 13.8 mph 23.0 mph N/A   Overcast
1:15 AM 41.0 °F 32.2 °F 37.4 °F 87% 29.99 in 9.0 mi WNW 18.4 mph 26.5 mph N/A   Overcast
1:55 AM 39.2 °F 29.8 °F 37.4 °F 93% 30.00 in 5.0 mi WNW 18.4 mph 26.5 mph N/A   Overcast
2:15 AM 39.2 °F 29.8 °F 37.4 °F 93% 30.00 in 5.0 mi WNW 18.4 mph 26.5 mph N/A   Overcast
2:35 AM 39.2 °F 29.3 °F 35.6 °F 87% 30.01 in 6.0 mi WNW 20.7 mph 31.1 mph N/A   Overcast
2:55 AM 39.2 °F 30.8 °F 35.6 °F 87% 30.02 in 10.0 mi WNW 15.0 mph 20.7 mph N/A   Overcast
3:15 AM 39.2 °F 30.2 °F 35.6 °F 87% 30.02 in 10.0 mi NW 17.3 mph 26.5 mph N/A   Overcast
3:35 AM 39.2 °F 30.5 °F 35.6 °F 87% 30.02 in 10.0 mi NW 16.1 mph 28.8 mph N/A   Overcast
4:55 AM 37.4 °F 28.2 °F 35.6 °F 93% 30.05 in 10.0 mi NW 16.1 mph 23.0 mph N/A   Overcast
5:35 AM 37.4 °F 28.5 °F 33.8 °F 87% 30.07 in 10.0 mi NW 15.0 mph 20.7 mph N/A   Overcast
5:55 AM 39.2 °F 31.2 °F 35.6 °F 87% 30.07 in 10.0 mi WNW 13.8 mph 21.9 mph N/A   Overcast
6:15 AM 39.2 °F 31.2 °F 35.6 °F 87% 30.07 in 10.0 mi WNW 13.8 mph 20.7 mph N/A   Overcast
6:35 AM 39.2 °F 30.5 °F 35.6 °F 87% 30.08 in 10.0 mi WNW 16.1 mph 20.7 mph N/A   Overcast
6:55 AM 39.2 °F 30.5 °F 35.6 °F 87% 30.08 in 10.0 mi NW 16.1 mph 24.2 mph N/A   Overcast
7:15 AM 39.2 °F 31.6 °F 35.6 °F 87% 30.08 in 10.0 mi NW 12.7 mph 25.3 mph N/A   Overcast
7:35 AM 39.2 °F 31.6 °F 35.6 °F 87% 30.09 in 10.0 mi NW 12.7 mph 20.7 mph N/A   Overcast
7:55 AM 39.2 °F 31.2 °F 35.6 °F 87% 30.10 in 10.0 mi WNW 13.8 mph 23.0 mph N/A   Overcast
8:15 AM 39.2 °F 31.6 °F 33.8 °F 81% 30.10 in 10.0 mi WNW 12.7 mph 24.2 mph N/A   Overcast
8:35 AM 39.2 °F 31.6 °F 33.8 °F 81% 30.11 in 10.0 mi WNW 12.7 mph 20.7 mph N/A   Overcast
8:55 AM 39.2 °F 31.6 °F 33.8 °F 81% 30.13 in 9.0 mi WNW 12.7 mph 18.4 mph N/A   Overcast
9:35 AM 39.2 °F 31.6 °F 33.8 °F 81% 30.13 in 10.0 mi NW 12.7 mph 19.6 mph N/A   Overcast
9:55 AM 41.0 °F 34.3 °F 33.8 °F 76% 30.13 in 10.0 mi NW 11.5 mph 20.7 mph N/A   Scattered Clouds
10:35 AM 42.8 °F 35.1 °F 33.8 °F 70% 30.14 in 10.0 mi NW 16.1 mph 27.6 mph N/A   Clear
10:55 AM 44.6 °F 37.8 °F 33.8 °F 66% 30.14 in 10.0 mi NW 15.0 mph 27.6 mph N/A   Clear
11:15 AM 44.6 °F 36.4 °F 33.8 °F 66% 30.15 in 10.0 mi NW 20.7 mph 25.3 mph N/A   Clear
11:35 AM 46.4 °F 39.0 °F 30.2 °F 53% 30.15 in 10.0 mi NNW 19.6 mph 26.5 mph N/A   Clear
11:55 AM 46.4 °F 40.4 °F 32.0 °F 57% 30.15 in 10.0 mi NNW 13.8 mph 21.9 mph N/A   Clear
12:35 PM 48.2 °F - 30.2 °F 50% 30.15 in 10.0 mi NNW 16.1 mph 25.3 mph N/A   Partly Cloudy
12:55 PM 48.2 °F - 28.4 °F 46% 30.15 in 10.0 mi NNW 16.1 mph 27.6 mph N/A   Mostly Cloudy
1:15 PM 48.2 °F - 30.2 °F 50% 30.14 in 10.0 mi NW 18.4 mph 26.5 mph N/A   Overcast
1:35 PM 48.2 °F - 30.2 °F 50% 30.14 in 10.0 mi NW 12.7 mph 23.0 mph N/A   Overcast
1:55 PM 48.2 °F - 30.2 °F 50% 30.14 in 10.0 mi NNW 11.5 mph 20.7 mph N/A   Overcast
2:15 PM 48.2 °F - 30.2 °F 50% 30.14 in 10.0 mi NNW 15.0 mph 31.1 mph N/A   Overcast
2:35 PM 50.0 °F - 30.2 °F 47% 30.14 in 10.0 mi NW 18.4 mph 25.3 mph N/A   Overcast
2:55 PM 51.8 °F - 30.2 °F 44% 30.14 in 10.0 mi North 16.1 mph 26.5 mph N/A   Overcast
3:15 PM 51.8 °F - 28.4 °F 41% 30.15 in 10.0 mi NW 15.0 mph 21.9 mph N/A   Overcast
3:35 PM 50.0 °F - 28.4 °F 43% 30.15 in 10.0 mi NNW 10.4 mph 24.2 mph N/A   Overcast
4:15 PM 50.0 °F - 30.2 °F 47% 30.15 in 10.0 mi NNW 13.8 mph 20.7 mph N/A   Overcast
4:35 PM 50.0 °F - 28.4 °F 43% 30.16 in 10.0 mi NNW 15.0 mph 18.4 mph N/A   Overcast
4:55 PM 50.0 °F - 28.4 °F 43% 30.16 in 10.0 mi NNW 12.7 mph 18.4 mph N/A   Overcast
5:15 PM 50.0 °F - 28.4 °F 43% 30.16 in 10.0 mi NNW 10.4 mph 16.1 mph N/A   Overcast
5:35 PM 50.0 °F - 28.4 °F 43% 30.16 in 10.0 mi NNW 11.5 mph 19.6 mph N/A   Overcast
5:55 PM 50.0 °F - 28.4 °F 43% 30.17 in 10.0 mi North 9.2 mph 17.3 mph N/A   Overcast
6:15 PM 50.0 °F - 28.4 °F 43% 30.17 in 10.0 mi NNW 11.5 mph 16.1 mph N/A   Overcast
6:35 PM 50.0 °F - 28.4 °F 43% 30.17 in 10.0 mi NNW 8.1 mph - N/A   Overcast
6:55 PM 50.0 °F - 28.4 °F 43% 30.18 in 10.0 mi NNW 4.6 mph - N/A   Overcast
7:15 PM 48.2 °F - 28.4 °F 46% 30.18 in 10.0 mi NNW 8.1 mph - N/A   Overcast
7:35 PM 48.2 °F - 30.2 °F 50% 30.19 in 10.0 mi NNW 4.6 mph - N/A   Overcast
7:55 PM 48.2 °F - 30.2 °F 50% 30.20 in 10.0 mi NW 4.6 mph - N/A   Overcast
8:15 PM 46.4 °F 43.5 °F 30.2 °F 53% 30.20 in 10.0 mi WNW 5.8 mph - N/A   Overcast
8:35 PM 46.4 °F 45.2 °F 30.2 °F 53% 30.20 in 10.0 mi NNW 3.5 mph - N/A   Mostly Cloudy
8:55 PM 44.6 °F 42.2 °F 30.2 °F 57% 30.20 in 10.0 mi NW 4.6 mph - N/A   Mostly Cloudy
9:15 PM 44.6 °F 41.4 °F 30.2 °F 57% 30.19 in 10.0 mi NW 5.8 mph - N/A   Overcast
9:35 PM 44.6 °F 41.4 °F 28.4 °F 53% 30.20 in 10.0 mi NNW 5.8 mph - N/A   Overcast
9:55 PM 44.6 °F 42.2 °F 28.4 °F 53% 30.20 in 10.0 mi NNW 4.6 mph - N/A   Overcast
10:15 PM 44.6 °F 41.4 °F 28.4 °F 53% 30.20 in 10.0 mi NNW 5.8 mph - N/A   Overcast
10:35 PM 44.6 °F 42.2 °F 28.4 °F 53% 30.21 in 10.0 mi NNW 4.6 mph - N/A   Partly Cloudy
10:55 PM 44.6 °F 42.2 °F 28.4 °F 53% 30.22 in 10.0 mi NNW 4.6 mph - N/A   Clear
11:15 PM 42.8 °F 39.3 °F 28.4 °F 57% 30.22 in 10.0 mi WNW 5.8 mph - N/A   Clear